2022-02-08 00:03:06 r, 18.18m,0000000005Hz,0000102421c,0000000.222s, 005.4C,00002191
2022-02-08 00:13:08 r, 18.69m,0000000003Hz,0000164063c,0000000.356s, 005.4C,00002191
2022-02-08 00:23:06 r, 18.64m,0000000003Hz,0000156942c,0000000.341s, 005.4C,00002191
2022-02-08 00:33:06 r, 18.92m,0000000002Hz,0000202458c,0000000.439s, 005.4C,00002191
2022-02-08 00:43:07 r, 19.03m,0000000002Hz,0000223926c,0000000.486s, 005.4C,00002191
2022-02-08 00:53:06 r, 18.96m,0000000002Hz,0000210169c,0000000.456s, 005.4C,00002191
2022-02-08 01:03:06 r, 18.97m,0000000002Hz,0000212000c,0000000.460s, 005.4C,00002191
2022-02-08 01:13:07 r, 19.18m,0000000002Hz,0000257186c,0000000.558s, 005.4C,00002191
2022-02-08 01:23:06 r, 19.32m,0000000002Hz,0000293918c,0000000.638s, 005.4C,00002191
2022-02-08 01:33:06 r, 19.65m,0000000001Hz,0000398235c,0000000.864s, 005.4C,00002191
2022-02-08 01:43:06 r, 19.05m,0000000002Hz,0000228747c,0000000.496s, 005.4C,00002191
2022-02-08 01:53:06 r, 18.84m,0000000002Hz,0000188109c,0000000.408s, 005.4C,00002191
2022-02-08 02:03:06 r, 18.93m,0000000003Hz,0000204257c,0000000.443s, 005.4C,00002191
2022-02-08 02:13:08 r, 19.48m,0000000001Hz,0000338074c,0000000.734s, 005.4C,00002191
2022-02-08 02:23:06 r, 19.65m,0000000002Hz,0000398332c,0000000.864s, 005.4C,00002191
2022-02-08 02:33:06 r, 20.08m,0000000000Hz,0000587468c,0000001.275s, 005.4C,00002191
2022-02-08 02:43:08 r, 20.12m,0000000001Hz,0000606697c,0000001.317s, 005.1C,00002191
2022-02-08 02:53:06 r, 20.15m,0000000001Hz,0000627580c,0000001.362s, 005.1C,00002191
2022-02-08 03:03:06 r, 20.17m,0000000001Hz,0000635325c,0000001.379s, 005.1C,00002191
2022-02-08 03:13:07 r, 20.15m,0000000000Hz,0000623988c,0000001.354s, 005.1C,00002191
2022-02-08 03:23:07 r, 19.43m,0000000001Hz,0000327268c,0000000.710s, 005.1C,00002191
2022-02-08 03:33:06 r, 20.14m,0000000001Hz,0000622136c,0000001.350s, 005.1C,00002191
2022-02-08 03:43:07 r, 19.60m,0000000001Hz,0000380238c,0000000.825s, 004.8C,00002191
2022-02-08 03:53:07 r, 18.81m,0000000002Hz,0000183362c,0000000.398s, 005.1C,00002191
2022-02-08 04:03:06 r, 17.44m,0000000009Hz,0000052112c,0000000.113s, 005.8C,00002191
2022-02-08 04:13:07 r, 17.64m,0000000008Hz,0000062514c,0000000.136s, 006.4C,00002191
2022-02-08 04:23:08 r, 17.42m,0000000009Hz,0000051144c,0000000.111s, 007.0C,00002191
2022-02-08 04:33:06 r, 18.59m,0000000003Hz,0000149707c,0000000.325s, 007.4C,00002191
2022-02-08 04:43:08 r, 20.09m,0000000001Hz,0000591263c,0000001.283s, 007.7C,00002191
2022-02-08 04:53:07 r, 19.27m,0000000002Hz,0000278682c,0000000.605s, 007.7C,00002191
2022-02-08 05:03:06 r, 19.94m,0000000001Hz,0000513632c,0000001.115s, 008.0C,00002191
2022-02-08 05:13:08 r, 19.84m,0000000001Hz,0000473334c,0000001.027s, 008.0C,00002191
2022-02-08 05:23:07 r, 20.09m,0000000000Hz,0000591940c,0000001.285s, 008.0C,00002191
2022-02-08 05:33:06 r, 19.43m,0000000001Hz,0000325430c,0000000.706s, 007.7C,00002191
2022-02-08 05:43:06 r, 19.98m,0000000000Hz,0000533955c,0000001.159s, 007.7C,00002191
2022-02-08 05:53:07 r, 19.96m,0000000001Hz,0000526026c,0000001.142s, 008.0C,00002191
2022-02-08 06:03:06 r, 20.13m,0000000001Hz,0000613655c,0000001.332s, 008.0C,00002191
2022-02-08 06:13:07 r, 20.09m,0000000001Hz,0000591644c,0000001.284s, 008.0C,00002191
2022-02-08 06:23:07 r, 20.07m,0000000001Hz,0000579992c,0000001.259s, 008.0C,00002191
2022-02-08 06:33:06 r, 19.80m,0000000001Hz,0000457025c,0000000.992s, 008.0C,00002191
2022-02-08 06:43:07 r, 19.13m,0000000001Hz,0000247669c,0000000.537s, 008.3C,00002191
2022-02-08 06:53:08 r, 17.91m,0000000006Hz,0000079884c,0000000.173s, 008.3C,00002191
2022-02-08 07:03:06 r, 16.26m,0000000026Hz,0000017479c,0000000.038s, 008.7C,00002191
2022-02-08 07:13:08 r, 14.25m,0000000168Hz,0000000000c,0000000.000s, 008.7C,00002191
2022-02-08 07:23:07 r, 12.19m,0000001122Hz,0000000000c,0000000.000s, 008.7C,00002191
2022-02-08 07:33:06 r, 10.22m,0000006910Hz,0000000000c,0000000.000s, 008.7C,00002191
2022-02-08 07:43:08 r, 08.63m,0000029902Hz,0000000000c,0000000.000s, 008.7C,00002191
2022-02-08 07:53:07 r, 07.52m,0000083077Hz,0000000000c,0000000.000s, 008.7C,00002191
2022-02-08 08:03:06 r, 06.82m,0000158179Hz,0000000000c,0000000.000s, 008.7C,00002191
2022-02-08 08:13:07 r, 06.34m,0000245867Hz,0000000000c,0000000.000s, 009.3C,00002191
2022-02-08 08:23:08 r, 00.00m,0000407270Hz,0000000000c,0000000.000s, 010.3C,00002191
2022-02-08 08:33:06 r, 00.00m,0000541124Hz,0000000000c,0000000.000s, 011.6C,00002191
2022-02-08 08:43:06 r, 00.00m,0000598125Hz,0000000000c,0000000.000s, 012.5C,00002191
2022-02-08 08:53:08 r, 00.00m,0000598165Hz,0000000000c,0000000.000s, 012.8C,00002191
2022-02-08 09:03:06 r, 00.00m,0000598091Hz,0000000000c,0000000.000s, 013.2C,00002191
2022-02-08 09:13:08 r, 00.00m,0000597983Hz,0000000000c,0000000.000s, 013.5C,00002191
2022-02-08 09:23:07 r, 00.00m,0000597975Hz,0000000000c,0000000.000s, 013.8C,00002191
2022-02-08 09:33:06 r, 00.00m,0000597813Hz,0000000000c,0000000.000s, 014.8C,00002191
2022-02-08 09:43:08 r, 00.00m,0000597730Hz,0000000000c,0000000.000s, 015.1C,00002191
2022-02-08 09:53:07 r, 00.00m,0000597675Hz,0000000000c,0000000.000s, 016.4C,00002191
2022-02-08 10:03:06 r, 00.00m,0000597645Hz,0000000000c,0000000.000s, 017.0C,00002191
2022-02-08 10:13:07 r, 00.00m,0000597664Hz,0000000000c,0000000.000s, 017.0C,00002191
2022-02-08 10:23:07 r, 00.00m,0000597536Hz,0000000000c,0000000.000s, 017.4C,00002191
2022-02-08 10:33:06 r, 00.00m,0000597547Hz,0000000000c,0000000.000s, 018.0C,00002191
2022-02-08 10:43:06 r, 00.00m,0000597557Hz,0000000000c,0000000.000s, 017.7C,00002191
2022-02-08 10:53:08 r, 00.00m,0000597615Hz,0000000000c,0000000.000s, 017.7C,00002191
2022-02-08 11:03:06 r, 00.00m,0000597539Hz,0000000000c,0000000.000s, 017.0C,00002191
2022-02-08 11:13:07 r, 00.00m,0000597602Hz,0000000000c,0000000.000s, 017.0C,00002191
2022-02-08 11:23:07 r, 00.00m,0000597635Hz,0000000000c,0000000.000s, 017.0C,00002191
2022-02-08 11:33:06 r, 00.00m,0000597529Hz,0000000000c,0000000.000s, 017.7C,00002191
2022-02-08 11:43:08 r, 00.00m,0000597490Hz,0000000000c,0000000.000s, 018.3C,00002191
2022-02-08 11:53:07 r, 00.00m,0000597324Hz,0000000000c,0000000.000s, 019.3C,00002191
2022-02-08 12:03:06 r, 00.00m,0000597177Hz,0000000000c,0000000.000s, 020.9C,00002191
2022-02-08 12:13:08 r, 00.00m,0000596980Hz,0000000000c,0000000.000s, 022.5C,00002191
2022-02-08 12:23:07 r, 00.00m,0000596868Hz,0000000000c,0000000.000s, 023.5C,00002191
2022-02-08 12:33:06 r, 00.00m,0000596985Hz,0000000000c,0000000.000s, 022.2C,00002191
2022-02-08 12:43:07 r, 00.00m,0000597268Hz,0000000000c,0000000.000s, 020.3C,00002191
2022-02-08 12:53:07 r, 00.00m,0000597412Hz,0000000000c,0000000.000s, 019.0C,00002191
2022-02-08 13:03:06 r, 00.00m,0000597429Hz,0000000000c,0000000.000s, 019.3C,00002191
2022-02-08 13:13:06 r, 00.00m,0000597271Hz,0000000000c,0000000.000s, 019.6C,00002191
2022-02-08 13:23:08 r, 00.00m,0000597402Hz,0000000000c,0000000.000s, 019.3C,00002191
2022-02-08 13:33:06 r, 00.00m,0000597303Hz,0000000000c,0000000.000s, 019.3C,00002191
2022-02-08 13:43:06 r, 00.00m,0000597388Hz,0000000000c,0000000.000s, 018.6C,00002191
2022-02-08 13:53:08 r, 00.00m,0000597405Hz,0000000000c,0000000.000s, 018.6C,00002191
2022-02-08 14:03:06 r, 00.00m,0000597471Hz,0000000000c,0000000.000s, 018.3C,00002191
2022-02-08 14:13:06 r, 00.00m,0000597642Hz,0000000000c,0000000.000s, 017.7C,00002191
2022-02-08 14:23:07 r, 00.00m,0000597652Hz,0000000000c,0000000.000s, 017.0C,00002191
2022-02-08 14:33:06 r, 00.00m,0000597615Hz,0000000000c,0000000.000s, 017.0C,00002191
2022-02-08 14:43:06 r, 00.00m,0000597681Hz,0000000000c,0000000.000s, 017.0C,00002191
2022-02-08 14:53:07 r, 00.00m,0000597585Hz,0000000000c,0000000.000s, 017.0C,00002191
2022-02-08 15:03:06 r, 00.00m,0000597582Hz,0000000000c,0000000.000s, 017.4C,00002191
2022-02-08 15:13:06 r, 00.00m,0000597699Hz,0000000000c,0000000.000s, 017.4C,00002191
2022-02-08 15:23:06 r, 00.00m,0000597711Hz,0000000000c,0000000.000s, 017.0C,00002191
2022-02-08 15:33:06 r, 00.00m,0000597717Hz,0000000000c,0000000.000s, 016.7C,00002191
2022-02-08 15:43:06 r, 00.00m,0000597788Hz,0000000000c,0000000.000s, 016.4C,00002191
2022-02-08 15:53:08 r, 00.00m,0000597821Hz,0000000000c,0000000.000s, 016.1C,00002191
2022-02-08 16:03:06 r, 00.00m,0000597820Hz,0000000000c,0000000.000s, 015.7C,00002191
2022-02-08 16:13:06 r, 00.00m,0000597861Hz,0000000000c,0000000.000s, 015.7C,00002191
2022-02-08 16:23:07 r, 00.00m,0000597980Hz,0000000000c,0000000.000s, 015.1C,00002191
2022-02-08 16:33:06 r, 00.00m,0000597823Hz,0000000000c,0000000.000s, 015.1C,00002191
2022-02-08 16:43:06 r, 00.00m,0000597925Hz,0000000000c,0000000.000s, 014.8C,00002191
2022-02-08 16:53:07 r, 00.00m,0000597935Hz,0000000000c,0000000.000s, 014.5C,00002191
2022-02-08 17:03:06 r, 00.00m,0000552166Hz,0000000000c,0000000.000s, 014.8C,00002191
2022-02-08 17:13:06 r, 00.00m,0000449723Hz,0000000000c,0000000.000s, 014.5C,00002191
2022-02-08 17:23:07 r, 06.25m,0000266872Hz,0000000000c,0000000.000s, 014.5C,00002191
2022-02-08 17:33:06 r, 07.29m,0000102550Hz,0000000000c,0000000.000s, 014.5C,00002191
2022-02-08 17:43:06 r, 08.50m,0000033791Hz,0000000000c,0000000.000s, 014.1C,00002191
2022-02-08 17:53:08 r, 10.09m,0000007758Hz,0000000000c,0000000.000s, 014.1C,00002191
2022-02-08 18:03:06 r, 11.96m,0000001399Hz,0000000000c,0000000.000s, 013.8C,00002191
2022-02-08 18:13:06 r, 14.07m,0000000198Hz,0000000000c,0000000.000s, 013.8C,00002191
2022-02-08 18:23:08 r, 15.83m,0000000039Hz,0000011765c,0000000.026s, 013.8C,00002191
2022-02-08 18:33:06 r, 16.72m,0000000018Hz,0000026677c,0000000.058s, 014.1C,00002191
2022-02-08 18:43:06 r, 17.02m,0000000013Hz,0000035419c,0000000.077s, 014.1C,00002191
2022-02-08 18:53:07 r, 17.11m,0000000012Hz,0000038485c,0000000.084s, 014.1C,00002191
2022-02-08 19:03:06 r, 17.25m,0000000010Hz,0000043523c,0000000.094s, 014.1C,00002191
2022-02-08 19:13:06 r, 17.27m,0000000010Hz,0000044345c,0000000.096s, 014.1C,00002191
2022-02-08 19:23:07 r, 17.27m,0000000010Hz,0000044396c,0000000.096s, 014.1C,00002191
2022-02-08 19:33:06 r, 17.27m,0000000010Hz,0000044356c,0000000.096s, 014.1C,00002191
2022-02-08 19:43:06 r, 17.26m,0000000010Hz,0000044166c,0000000.096s, 014.1C,00002191
2022-02-08 19:53:07 r, 17.26m,0000000011Hz,0000043924c,0000000.095s, 014.1C,00002191
2022-02-08 20:03:07 r, 17.19m,0000000011Hz,0000041047c,0000000.089s, 014.1C,00002191
2022-02-08 20:13:06 r, 17.17m,0000000012Hz,0000040638c,0000000.088s, 014.1C,00002191
2022-02-08 20:23:08 r, 17.09m,0000000012Hz,0000037411c,0000000.081s, 014.1C,00002191
2022-02-08 20:33:07 r, 17.09m,0000000012Hz,0000037668c,0000000.082s, 014.1C,00002191
2022-02-08 20:43:06 r, 17.11m,0000000012Hz,0000038320c,0000000.083s, 014.1C,00002191
2022-02-08 20:53:08 r, 17.07m,0000000013Hz,0000036999c,0000000.080s, 014.1C,00002191
2022-02-08 21:03:07 r, 17.12m,0000000012Hz,0000038713c,0000000.084s, 014.1C,00002191
2022-02-08 21:13:06 r, 17.16m,0000000011Hz,0000040387c,0000000.088s, 014.1C,00002191
2022-02-08 21:23:07 r, 17.15m,0000000011Hz,0000039888c,0000000.087s, 014.1C,00002191
2022-02-08 21:33:07 r, 17.20m,0000000011Hz,0000041733c,0000000.091s, 014.1C,00002191
2022-02-08 21:43:06 r, 17.15m,0000000012Hz,0000039842c,0000000.086s, 013.8C,00002191
2022-02-08 21:53:06 r, 17.16m,0000000011Hz,0000040279c,0000000.087s, 013.8C,00002191
2022-02-08 22:03:08 r, 17.19m,0000000012Hz,0000041450c,0000000.090s, 013.8C,00002191
2022-02-08 22:13:06 r, 17.28m,0000000011Hz,0000044952c,0000000.098s, 013.8C,00002191
2022-02-08 22:23:08 r, 17.31m,0000000010Hz,0000046022c,0000000.100s, 013.5C,00002191
2022-02-08 22:33:07 r, 17.09m,0000000013Hz,0000037457c,0000000.081s, 013.5C,00002191
2022-02-08 22:43:06 r, 17.16m,0000000011Hz,0000040018c,0000000.087s, 013.2C,00002191
2022-02-08 22:53:08 r, 17.27m,0000000010Hz,0000044378c,0000000.096s, 013.2C,00002191
2022-02-08 23:03:07 r, 17.31m,0000000010Hz,0000046072c,0000000.100s, 012.8C,00002191
2022-02-08 23:13:06 r, 17.36m,0000000010Hz,0000048003c,0000000.104s, 012.8C,00002191
2022-02-08 23:23:07 r, 17.27m,0000000010Hz,0000044408c,0000000.096s, 012.5C,00002191
2022-02-08 23:33:07 r, 17.33m,0000000009Hz,0000047045c,0000000.102s, 012.5C,00002191
2022-02-08 23:43:06 r, 17.38m,0000000010Hz,0000049104c,0000000.107s, 012.2C,00002191
2022-02-08 23:53:07 r, 17.44m,0000000009Hz,0000052128c,0000000.113s, 012.2C,00002191
